Weather Roundup
Issued by NWS Corpus Christi, TX

Home | Current Version | Previous Version | Text Only | Print | Product List | Glossary On
Versions: 1 2 3 4 5 6 7 8 9 10 11 12 13 14 15 16 17 18 19 20 21 22 23 24 25 26 27 28 29 30 31 32 33 34 35 36 37 38 39 40 41 42 43 44 45 46 47 48 49 50
000
ASUS44 KCRP 200510
HRRCRP

SOUTH TEXAS REGIONAL WEATHER ROUNDUP
NATIONAL WEATHER SERVICE CORPUS CHRISTI TX
1200 AM CDT MON MAY 20 2019


TXZ229>244-200600-
...CORPUS CHRISTI AREA OBSERVATIONS...

CITY           SKY/WX    TMP DP  RH WIND       PRES   REMARKS
CORPUS CHRISTI CLOUDY    82  77  84 SE15      29.84R HX  90
NAS CORPUS CHR   N/A     85  79  82 SE16G24   29.84R HX  98
ROCKPORT       CLOUDY    80  78  94 SE16G23   29.85R FOG
KINGSVILLE ARP CLOUDY    82  81  99 E8        29.84R FOG     HX  94
KINGSVILLE NAS CLOUDY    82  78  88 SE12      29.83R HX  91
ALICE          CLOUDY    81  77  88 SE10      29.83R
$$

...VICTORIA AREA OBSERVATIONS...

CITY           SKY/WX    TMP DP  RH WIND       PRES   REMARKS
PORT LAVACA    CLOUDY    82  79  89 SE13G21   29.87S HX  92
VICTORIA       CLOUDY    80  77  90 SE13      29.87R
BEEVILLE       CLOUDY    82  76  82 SE10      29.85S
PLEASANTON     MOCLDY    76  73  90 E6        29.86R
SAN ANTONIO    CLOUDY    78  73  84 SE17G23   29.87R
$$

...LAREDO AREA OBSERVATIONS...

CITY           SKY/WX    TMP DP  RH WIND       PRES   REMARKS
LAREDO         CLOUDY    81  76  84 SE13      29.80R
COTULLA        PTCLDY    81  75  82 SE14      29.82R
DEL RIO        CLEAR     81  72  74 E12G22    29.78S
MCALLEN        CLOUDY    82  78  88 SE12      29.82R HX  91
HEBBRONVILLE   CLOUDY    79  74  84 SE7       29.85R
$$

...OTHER TEXAS OBSERVATIONS...

CITY           SKY/WX    TMP DP  RH WIND       PRES   REMARKS
BROWNSVILLE    CLOUDY    83  81  94 SE12      29.83R HX  97
HOUSTON        MOCLDY    79  77  94 SE10      29.90F
COL. STATION   CLEAR     77  72  84 SE8       29.90R
AUSTIN         CLEAR     79  74  84 SE7       29.87R
TEMPLE           N/A     79  77  94 SE12      29.88R
WACO           CLOUDY    76  71  85 E3        29.87S
FORT WORTH     MOCLDY    72  59  63 E6        29.88S
WICHITA FALLS  CLOUDY    63  61  93 E6        29.89S
LUBBOCK        PTCLDY    66  52  60 SE21      29.89S
EL PASO        CLOUDY    81  21  11 W14G23    29.79R
$$

...MARINE OBSERVATIONS...

STATION/POSITION TIME  SKY/WX   TEMP    WIND        PRES    VSBY  WAVE   SWELL
                                AIR SEA DIR/SP/G                  HT/PER HT/PER
                 (UTC)          (F)     (DEG/KT/KT) (MB)    (MI)  (FT/S) (FT/S)
PORT ARANSAS     0500            80 80  120/ 16/ 18 1010.5R
BUOY 90 E PORT A 0450            79     130/ 12/ 16 1011.6F         5/ 7   3/ 7
BUOY 45 SE BAFFI 0450            81 80  130/ 14/ 17 1010.6R         5/ 8   3/ 8
BUOY 200 E PT IS 0450            80 80  130/ 17/ 19 1012.1R         6/ 8
BUOY 15 E GALVES 0450            79 78  140/ 12/ 14 1013.6S         4/ 7   3/ 7
$$



USA.gov is the U.S. government's official web portal to all federal, state and local government web resources and services.